ASL792 LFOB-LYBE

Flight info

Callsign ASL792
Flight time 2h 12m
Altitude 37000
Route BUBLI DCT LUVAL DCT BEGAR DCT TRA DCT GAMSA DCT GEDSO DCT VALLU DCT RIGMU
Aircraft B738/M-SDE2E3FGHIRWXY/LB1

Departure

Time 2026-05-01 08:17
Airport Beauvais-Tillé airport (LFOB)

Arrival

Time 2026-05-01 10:30
Airport Belgrade Nikola Tesla Airport (LYBE)
Time Latitude Longitude Altitude Speed Heading
2026-05-01 07:53 49.45901 2.11428 353 ft 0 kts 336°
2026-05-01 08:10 49.45883 2.11441 352 ft 2 kts 335°
2026-05-01 08:11 49.45861 2.11457 351 ft 2 kts 316°
2026-05-01 08:11 49.45850 2.11499 351 ft 2 kts 264°
2026-05-01 08:12 49.45860 2.11532 352 ft 1 kts 223°
2026-05-01 08:12 49.45864 2.11538 352 ft 0 kts 221°
2026-05-01 08:13 49.45826 2.11483 350 ft 8 kts 224°
2026-05-01 08:14 49.45773 2.11407 348 ft 11 kts 222°
2026-05-01 08:14 49.45708 2.11320 345 ft 13 kts 220°
2026-05-01 08:14 49.45703 2.11236 345 ft 8 kts 301°
2026-05-01 08:14 49.45729 2.11175 346 ft 5 kts 303°
2026-05-01 08:15 49.45758 2.11107 347 ft 9 kts 304°
2026-05-01 08:15 49.45716 2.10926 348 ft 14 kts 209°
2026-05-01 08:15 49.45661 2.10798 348 ft 18 kts 291°
2026-05-01 08:16 49.45730 2.10619 350 ft 20 kts 304°
2026-05-01 08:16 49.45796 2.10496 350 ft 8 kts 331°
2026-05-01 08:16 49.45842 2.10450 350 ft 7 kts 286°
2026-05-01 08:16 49.45803 2.10450 350 ft 10 kts 112°
2026-05-01 08:17 49.45723 2.10642 350 ft 50 kts 123°
2026-05-01 08:17 49.45395 2.11392 337 ft 116 kts 123°
2026-05-01 08:17 49.44843 2.12666 339 ft 166 kts 123°
2026-05-01 08:17 49.44209 2.14123 1047 ft 162 kts 120°
2026-05-01 08:18 49.43894 2.15730 1725 ft 165 kts 98°
2026-05-01 08:18 49.43998 2.19510 2536 ft 191 kts 85°
2026-05-01 08:19 49.44236 2.23939 3235 ft 227 kts 88°
2026-05-01 08:19 49.44347 2.26471 3657 ft 244 kts 87°
2026-05-01 08:19 49.44468 2.29134 4129 ft 257 kts 87°
2026-05-01 08:19 49.44598 2.31915 4693 ft 266 kts 86°
2026-05-01 08:20 49.44695 2.34738 5392 ft 269 kts 91°
2026-05-01 08:20 49.44386 2.37571 6089 ft 270 kts 112°
2026-05-01 08:20 49.43528 2.40111 6790 ft 272 kts 122°
2026-05-01 08:20 49.42539 2.42544 7518 ft 274 kts 122°
2026-05-01 08:21 49.41543 2.45037 8272 ft 276 kts 121°
2026-05-01 08:21 49.40572 2.47573 9038 ft 278 kts 121°
2026-05-01 08:21 49.39614 2.50134 9807 ft 280 kts 120°
2026-05-01 08:21 49.38658 2.52715 10572 ft 282 kts 120°
2026-05-01 08:22 49.37661 2.55405 11002 ft 297 kts 120°
2026-05-01 08:22 49.36625 2.58192 11450 ft 311 kts 120°
2026-05-01 08:22 49.35525 2.61147 11874 ft 326 kts 120°
2026-05-01 08:22 49.34378 2.64228 12262 ft 342 kts 120°
2026-05-01 08:23 49.33163 2.67482 12673 ft 356 kts 121°
2026-05-01 08:23 49.31924 2.70802 13056 ft 370 kts 121°
2026-05-01 08:23 49.30626 2.74274 13783 ft 374 kts 121°
2026-05-01 08:23 49.29340 2.77710 14533 ft 377 kts 121°
2026-05-01 08:24 49.28037 2.81188 15269 ft 381 kts 121°
2026-05-01 08:24 49.26709 2.84728 16042 ft 384 kts 121°
2026-05-01 08:24 49.25383 2.88257 16779 ft 387 kts 121°
2026-05-01 08:24 49.24043 2.91817 17446 ft 392 kts 121°
2026-05-01 08:25 49.22676 2.95445 18129 ft 396 kts 121°
2026-05-01 08:25 49.21310 2.99046 18838 ft 399 kts 121°
2026-05-01 08:25 49.19840 3.02658 19524 ft 402 kts 124°
2026-05-01 08:25 49.18137 3.06080 20222 ft 404 kts 131°
2026-05-01 08:26 49.16211 3.09173 20845 ft 408 kts 136°
2026-05-01 08:26 49.14118 3.12108 21540 ft 410 kts 138°
2026-05-01 08:26 49.11956 3.14958 22186 ft 412 kts 139°
2026-05-01 08:26 49.09766 3.17781 22780 ft 416 kts 139°
2026-05-01 08:27 49.07573 3.20593 23412 ft 418 kts 139°
2026-05-01 08:27 49.05335 3.23466 23990 ft 422 kts 139°
2026-05-01 08:27 49.03066 3.26393 24553 ft 426 kts 139°
2026-05-01 08:27 49.00828 3.29285 25117 ft 429 kts 139°
2026-05-01 08:28 48.98537 3.32255 25691 ft 432 kts 139°
2026-05-01 08:28 48.96272 3.35195 26164 ft 437 kts 139°
2026-05-01 08:28 48.93957 3.38201 26692 ft 440 kts 139°
2026-05-01 08:28 48.91640 3.41210 27189 ft 443 kts 139°
2026-05-01 08:29 48.89290 3.44303 27725 ft 446 kts 137°
2026-05-01 08:29 48.87109 3.47570 28476 ft 442 kts 131°
2026-05-01 08:29 48.85181 3.51195 29301 ft 438 kts 125°
2026-05-01 08:29 48.83578 3.55095 29906 ft 437 kts 118°
2026-05-01 08:30 48.82257 3.59202 30527 ft 436 kts 114°
2026-05-01 08:30 48.81156 3.63480 31104 ft 436 kts 109°
2026-05-01 08:30 48.80348 3.67931 31603 ft 437 kts 103°
2026-05-01 08:30 48.79821 3.72551 32115 ft 437 kts 99°
2026-05-01 08:31 48.79469 3.77113 32653 ft 436 kts 97°
2026-05-01 08:31 48.79189 3.81758 33126 ft 437 kts 97°
2026-05-01 08:31 48.78934 3.86387 33588 ft 437 kts 97°
2026-05-01 08:31 48.78680 3.90964 34008 ft 437 kts 97°
2026-05-01 08:32 48.78415 3.95521 34488 ft 435 kts 97°
2026-05-01 08:32 48.78138 4.00059 34896 ft 434 kts 98°
2026-05-01 08:32 48.77824 4.04684 35244 ft 434 kts 98°
2026-05-01 08:32 48.77387 4.09199 35601 ft 433 kts 103°
2026-05-01 08:33 48.76660 4.13574 35956 ft 431 kts 109°
2026-05-01 08:33 48.75601 4.17814 36274 ft 430 kts 115°
2026-05-01 08:33 48.74224 4.21840 36547 ft 430 kts 121°
2026-05-01 08:33 48.72587 4.25645 36847 ft 431 kts 125°
2026-05-01 08:34 48.70841 4.29300 37223 ft 431 kts 126°
2026-05-01 08:34 48.67234 4.36601 37233 ft 432 kts 126°
2026-05-01 08:35 48.63683 4.43865 37232 ft 431 kts 126°
2026-05-01 08:35 48.60171 4.51161 37230 ft 433 kts 126°
2026-05-01 08:36 48.56655 4.58524 37231 ft 432 kts 125°
2026-05-01 08:36 48.53164 4.65848 37227 ft 432 kts 126°
2026-05-01 08:37 48.49652 4.73207 37223 ft 431 kts 126°
2026-05-01 08:37 48.46181 4.80465 37225 ft 432 kts 126°
2026-05-01 08:38 48.42630 4.87871 37228 ft 434 kts 126°
2026-05-01 08:38 48.39099 4.95218 37224 ft 433 kts 126°
2026-05-01 08:39 48.35566 5.02551 37225 ft 434 kts 126°
2026-05-01 08:39 48.32091 5.09789 37222 ft 434 kts 124°
2026-05-01 08:40 48.28287 5.22171 37227 ft 434 kts 106°
2026-05-01 08:40 48.26874 5.30924 37226 ft 435 kts 102°
2026-05-01 08:41 48.25633 5.39801 37226 ft 436 kts 102°
2026-05-01 08:41 48.24372 5.48709 37226 ft 437 kts 102°
2026-05-01 08:42 48.23068 5.57597 37233 ft 437 kts 102°
2026-05-01 08:42 48.21734 5.66496 37230 ft 438 kts 103°
2026-05-01 08:43 48.21057 5.70965 37367 ft 441 kts 103°
2026-05-01 08:43 48.20388 5.75366 37245 ft 433 kts 103°
2026-05-01 08:43 48.19042 5.84158 37241 ft 436 kts 103°
2026-05-01 08:44 48.17679 5.93004 37245 ft 438 kts 103°
2026-05-01 08:44 48.16307 6.01864 37248 ft 437 kts 103°
2026-05-01 08:45 48.14936 6.10673 37257 ft 438 kts 103°
2026-05-01 08:45 48.13543 6.19575 37257 ft 437 kts 103°
2026-05-01 08:46 48.12150 6.28420 37253 ft 437 kts 103°
2026-05-01 08:46 48.10754 6.37233 37255 ft 438 kts 103°
2026-05-01 08:47 48.09351 6.46056 37254 ft 438 kts 103°
2026-05-01 08:47 48.07934 6.54912 37256 ft 438 kts 103°
2026-05-01 08:48 48.06509 6.63769 37258 ft 438 kts 103°
2026-05-01 08:48 48.05079 6.72619 37259 ft 439 kts 103°
2026-05-01 08:49 48.03643 6.81452 37261 ft 440 kts 103°
2026-05-01 08:49 48.02197 6.90300 37261 ft 440 kts 103°
2026-05-01 08:50 48.00739 6.99167 37261 ft 439 kts 103°
2026-05-01 08:50 47.99276 7.08023 37273 ft 440 kts 103°
2026-05-01 08:51 47.97815 7.16827 37282 ft 440 kts 103°
2026-05-01 08:51 47.96331 7.25723 37281 ft 440 kts 103°
2026-05-01 08:52 47.94849 7.34560 37279 ft 441 kts 103°
2026-05-01 08:52 47.93361 7.43382 37277 ft 440 kts 103°
2026-05-01 08:53 47.91874 7.52164 37274 ft 440 kts 102°
2026-05-01 08:53 47.90288 7.61016 37272 ft 441 kts 105°
2026-05-01 08:54 47.88222 7.69557 37275 ft 443 kts 110°
2026-05-01 08:54 47.85960 7.78127 37276 ft 444 kts 110°
2026-05-01 08:55 47.83721 7.86627 37277 ft 445 kts 110°
2026-05-01 08:55 47.81485 7.95227 37277 ft 444 kts 109°
2026-05-01 08:56 47.79271 8.03811 37270 ft 445 kts 109°
2026-05-01 08:56 47.77073 8.12328 37272 ft 445 kts 109°
2026-05-01 08:57 47.74856 8.20909 37273 ft 445 kts 109°
2026-05-01 08:57 47.72630 8.29503 37282 ft 446 kts 109°
2026-05-01 08:58 47.70395 8.38091 37281 ft 446 kts 109°
2026-05-01 08:58 47.68199 8.46614 37293 ft 446 kts 107°
2026-05-01 08:59 47.66202 8.55278 37298 ft 444 kts 105°
2026-05-01 08:59 47.64281 8.64009 37298 ft 445 kts 105°
2026-05-01 09:00 47.62348 8.72687 37301 ft 444 kts 106°
2026-05-01 09:00 47.60382 8.81377 37299 ft 445 kts 106°
2026-05-01 09:01 47.58394 8.90074 37294 ft 446 kts 106°
2026-05-01 09:01 47.56405 8.98715 37292 ft 445 kts 106°
2026-05-01 09:02 47.54401 9.07386 37297 ft 445 kts 106°
2026-05-01 09:02 47.52396 9.16028 37291 ft 445 kts 106°
2026-05-01 09:03 47.50397 9.24602 37295 ft 445 kts 106°
2026-05-01 09:03 47.48376 9.33250 37286 ft 444 kts 106°
2026-05-01 09:04 47.46344 9.41901 37287 ft 444 kts 105°
2026-05-01 09:04 47.44302 9.50555 37289 ft 444 kts 105°
2026-05-01 09:05 47.42277 9.59098 37294 ft 443 kts 105°
2026-05-01 09:05 47.40391 9.67761 37288 ft 442 kts 101°
2026-05-01 09:06 47.39074 9.76582 37297 ft 439 kts 98°
2026-05-01 09:06 47.37936 9.85391 37307 ft 438 kts 97°
2026-05-01 09:07 47.36779 9.94155 37320 ft 437 kts 97°
2026-05-01 09:07 47.35572 10.02964 37329 ft 437 kts 98°
2026-05-01 09:08 47.34345 10.11732 37335 ft 438 kts 98°
2026-05-01 09:08 47.33106 10.20469 37335 ft 437 kts 98°
2026-05-01 09:09 47.31856 10.29226 37345 ft 437 kts 97°
2026-05-01 09:09 47.30606 10.37940 37349 ft 436 kts 97°
2026-05-01 09:10 47.29344 10.46654 37347 ft 436 kts 97°
2026-05-01 09:10 47.28079 10.55333 37349 ft 435 kts 97°
2026-05-01 09:11 47.26806 10.64035 37009 ft 435 kts 97°
2026-05-01 09:11 47.26167 10.68379 37300 ft 432 kts 98°
2026-05-01 09:11 47.25531 10.72693 37356 ft 438 kts 98°
2026-05-01 09:12 47.24228 10.81506 37352 ft 437 kts 98°
2026-05-01 09:12 47.22925 10.90263 37367 ft 436 kts 98°
2026-05-01 09:13 47.21627 10.98946 37369 ft 435 kts 98°
2026-05-01 09:13 47.20315 11.07672 37372 ft 435 kts 97°
2026-05-01 09:14 47.19004 11.16362 37364 ft 436 kts 98°
2026-05-01 09:14 47.17693 11.24978 37357 ft 435 kts 97°
2026-05-01 09:15 47.16362 11.33670 37348 ft 435 kts 97°
2026-05-01 09:15 47.15036 11.42290 37341 ft 434 kts 97°
2026-05-01 09:16 47.13705 11.50907 37364 ft 434 kts 97°
2026-05-01 09:17 47.11695 11.63812 37358 ft 433 kts 97°
2026-05-01 09:17 47.09672 11.76738 37328 ft 433 kts 98°
2026-05-01 09:18 47.07595 11.89687 37327 ft 434 kts 99°
2026-05-01 09:19 47.04962 12.02331 37334 ft 435 kts 102°
2026-05-01 09:20 47.02173 12.15024 37314 ft 433 kts 102°
2026-05-01 09:21 46.98561 12.31866 37306 ft 435 kts 101°
2026-05-01 09:21 46.95838 12.44516 37336 ft 435 kts 101°
2026-05-01 09:22 46.92192 12.61384 37329 ft 434 kts 101°
2026-05-01 09:23 46.89457 12.73956 37296 ft 435 kts 101°
2026-05-01 09:24 46.86686 12.86587 37290 ft 434 kts 101°
2026-05-01 09:25 46.82993 13.03317 37337 ft 433 kts 101°
2026-05-01 09:26 46.80209 13.15843 37338 ft 433 kts 101°
2026-05-01 09:26 46.77396 13.28430 37335 ft 432 kts 101°
2026-05-01 09:27 46.74588 13.40907 37326 ft 431 kts 101°
2026-05-01 09:28 46.72712 13.49228 37322 ft 432 kts 101°
2026-05-01 09:28 46.70834 13.57528 37315 ft 431 kts 101°
2026-05-01 09:29 46.68002 13.69945 37327 ft 431 kts 102°
2026-05-01 09:30 46.65153 13.82394 37335 ft 432 kts 102°
2026-05-01 09:30 46.62301 13.94750 37325 ft 430 kts 102°
2026-05-01 09:31 46.60383 14.03042 37334 ft 432 kts 101°
2026-05-01 09:32 46.57508 14.15390 37337 ft 431 kts 102°
2026-05-01 09:32 46.54617 14.27742 37342 ft 430 kts 102°
2026-05-01 09:33 46.52686 14.35934 37343 ft 429 kts 102°
2026-05-01 09:34 46.49783 14.48213 37303 ft 429 kts 102°
2026-05-01 09:34 46.46864 14.60502 37280 ft 429 kts 102°
2026-05-01 09:35 46.43911 14.72882 37280 ft 431 kts 102°
2026-05-01 09:36 46.41934 14.81096 37274 ft 431 kts 102°
2026-05-01 09:36 46.39958 14.89290 37307 ft 432 kts 102°
2026-05-01 09:37 46.37994 14.97415 37327 ft 432 kts 102°
2026-05-01 09:37 46.34997 15.09745 37326 ft 432 kts 102°
2026-05-01 09:38 46.31976 15.22090 37327 ft 431 kts 102°
2026-05-01 09:39 46.28972 15.34338 37329 ft 431 kts 102°
2026-05-01 09:39 46.27214 15.42569 37340 ft 430 kts 99°
2026-05-01 09:40 46.24880 15.55025 37339 ft 431 kts 98°
2026-05-01 09:41 46.23273 15.63312 37350 ft 428 kts 98°
2026-05-01 09:41 46.20799 15.75764 37355 ft 429 kts 99°
2026-05-01 09:42 46.19131 15.84064 37342 ft 430 kts 99°
2026-05-01 09:43 46.15801 16.00580 37353 ft 429 kts 99°
2026-05-01 09:43 46.14132 16.08795 37344 ft 428 kts 99°
2026-05-01 09:44 46.11614 16.21148 37352 ft 430 kts 99°
2026-05-01 09:45 46.09918 16.29396 37343 ft 431 kts 100°
2026-05-01 09:45 46.08217 16.37631 37479 ft 431 kts 100°
2026-05-01 09:45 46.07363 16.41770 37379 ft 430 kts 100°
2026-05-01 09:46 46.05651 16.50007 37374 ft 426 kts 99°
2026-05-01 09:46 46.03959 16.58155 37360 ft 428 kts 100°
2026-05-01 09:47 46.02242 16.66371 37349 ft 428 kts 101°
2026-05-01 09:47 46.00530 16.74560 37353 ft 432 kts 101°
2026-05-01 09:48 45.98780 16.82877 37358 ft 432 kts 101°
2026-05-01 09:48 45.97037 16.91095 37354 ft 433 kts 101°
2026-05-01 09:49 45.95293 16.99288 37362 ft 432 kts 101°
2026-05-01 09:49 45.93530 17.07541 37335 ft 432 kts 101°
2026-05-01 09:50 45.91764 17.15766 37344 ft 432 kts 101°
2026-05-01 09:50 45.89999 17.23997 37343 ft 434 kts 101°
2026-05-01 09:51 45.88208 17.32313 37349 ft 436 kts 101°
2026-05-01 09:51 45.86424 17.40505 37349 ft 435 kts 101°
2026-05-01 09:52 45.84616 17.48819 37338 ft 435 kts 101°
2026-05-01 09:52 45.82811 17.57095 37360 ft 435 kts 101°
2026-05-01 09:53 45.81001 17.65339 37372 ft 436 kts 102°
2026-05-01 09:53 45.79174 17.73640 37357 ft 437 kts 102°
2026-05-01 09:54 45.77329 17.81987 37348 ft 440 kts 102°
2026-05-01 09:54 45.75485 17.90284 37365 ft 439 kts 102°
2026-05-01 09:55 45.73625 17.98606 37357 ft 438 kts 102°
2026-05-01 09:55 45.71769 18.06908 37361 ft 440 kts 102°
2026-05-01 09:56 45.69899 18.15253 37359 ft 440 kts 102°
2026-05-01 09:56 45.68031 18.23560 37341 ft 440 kts 102°
2026-05-01 09:57 45.66131 18.31928 37346 ft 441 kts 102°
2026-05-01 09:57 45.64230 18.40263 37352 ft 443 kts 102°
2026-05-01 09:58 45.62329 18.48604 37355 ft 442 kts 102°
2026-05-01 09:58 45.60415 18.56976 37353 ft 442 kts 102°
2026-05-01 09:59 45.58494 18.65320 37356 ft 444 kts 103°
2026-05-01 09:59 45.56567 18.73698 37343 ft 446 kts 103°
2026-05-01 10:00 45.54620 18.82123 37354 ft 445 kts 103°
2026-05-01 10:00 45.52677 18.90474 37346 ft 447 kts 103°
2026-05-01 10:01 45.50709 18.98886 37342 ft 447 kts 103°
2026-05-01 10:01 45.48737 19.07297 37337 ft 449 kts 103°
2026-05-01 10:02 45.46769 19.15655 37339 ft 450 kts 103°
2026-05-01 10:02 45.44760 19.24164 37328 ft 448 kts 103°
2026-05-01 10:03 45.42506 19.32420 37335 ft 457 kts 112°
2026-05-01 10:03 45.38864 19.39883 37329 ft 464 kts 128°
2026-05-01 10:04 45.34096 19.46187 37319 ft 472 kts 137°
2026-05-01 10:04 45.28625 19.51405 37329 ft 478 kts 148°
2026-05-01 10:05 45.22480 19.55020 37324 ft 482 kts 158°
2026-05-01 10:05 45.16068 19.57718 37313 ft 484 kts 162°
2026-05-01 10:06 45.09467 19.59532 37311 ft 488 kts 180°
2026-05-01 10:06 45.06087 19.58734 37330 ft 491 kts 195°
2026-05-01 10:06 45.02833 19.57313 37321 ft 492 kts 195°
2026-05-01 10:07 44.99498 19.56304 37315 ft 490 kts 184°
2026-05-01 10:07 44.96135 19.56405 37311 ft 484 kts 166°
2026-05-01 10:07 44.93008 19.57965 37320 ft 469 kts 147°
2026-05-01 10:07 44.90457 19.60627 37318 ft 446 kts 132°
2026-05-01 10:08 44.86673 19.67071 37316 ft 415 kts 121°
2026-05-01 10:08 44.85046 19.70430 37318 ft 416 kts 119°
2026-05-01 10:09 44.82501 19.77711 37315 ft 411 kts 96°
2026-05-01 10:09 44.82264 19.81642 37312 ft 396 kts 86°
2026-05-01 10:09 44.82309 19.85391 37314 ft 380 kts 83°
2026-05-01 10:10 44.82606 19.92657 36856 ft 366 kts 82°
2026-05-01 10:10 44.82792 19.96184 36320 ft 363 kts 82°
2026-05-01 10:10 44.83905 20.02926 35014 ft 352 kts 54°
2026-05-01 10:11 44.85516 20.05401 34620 ft 338 kts 34°
2026-05-01 10:11 44.87607 20.06827 34086 ft 336 kts 14°
2026-05-01 10:11 44.89909 20.07022 33614 ft 339 kts 354°
2026-05-01 10:11 44.92147 20.05943 33128 ft 347 kts 334°
2026-05-01 10:12 44.93980 20.03697 32698 ft 357 kts 313°
2026-05-01 10:12 44.95153 20.00550 32245 ft 371 kts 291°
2026-05-01 10:12 44.95365 19.93118 31515 ft 388 kts 269°
2026-05-01 10:13 44.95077 19.89330 30896 ft 393 kts 268°
2026-05-01 10:13 44.94750 19.85509 30110 ft 392 kts 268°
2026-05-01 10:13 44.94511 19.81747 29326 ft 387 kts 276°
2026-05-01 10:14 44.95332 19.74428 27759 ft 374 kts 289°
2026-05-01 10:14 44.95963 19.70917 26980 ft 371 kts 290°
2026-05-01 10:14 44.96626 19.67450 26200 ft 366 kts 294°
2026-05-01 10:14 44.97535 19.64129 25405 ft 359 kts 301°
2026-05-01 10:15 44.98626 19.61005 24600 ft 355 kts 303°
2026-05-01 10:15 44.99779 19.57951 23786 ft 351 kts 304°
2026-05-01 10:15 45.00934 19.54958 22971 ft 349 kts 304°
2026-05-01 10:15 45.02134 19.52049 22167 ft 344 kts 309°
2026-05-01 10:16 45.03478 19.49333 21367 ft 339 kts 313°
2026-05-01 10:16 45.04879 19.46688 20565 ft 335 kts 314°
2026-05-01 10:16 45.07923 19.41871 19043 ft 316 kts 335°
2026-05-01 10:17 45.09903 19.40946 18386 ft 296 kts
2026-05-01 10:17 45.13602 19.42508 17176 ft 275 kts 32°
2026-05-01 10:17 45.15144 19.44028 16576 ft 270 kts 41°
2026-05-01 10:18 45.17522 19.47974 15379 ft 264 kts 64°
2026-05-01 10:18 45.18042 19.50471 14786 ft 265 kts 79°
2026-05-01 10:18 45.18125 19.53072 14188 ft 265 kts 89°
2026-05-01 10:19 45.17841 19.55659 13587 ft 269 kts 103°
2026-05-01 10:19 45.17013 19.58034 12999 ft 274 kts 117°
2026-05-01 10:19 45.15930 19.60252 12391 ft 274 kts 120°
2026-05-01 10:20 45.13747 19.64585 11180 ft 271 kts 120°
2026-05-01 10:20 45.12670 19.66760 10578 ft 270 kts 120°
2026-05-01 10:20 45.11605 19.68923 9975 ft 268 kts 120°
2026-05-01 10:20 45.10548 19.71078 9383 ft 266 kts 120°
2026-05-01 10:21 45.09483 19.73226 8787 ft 265 kts 121°
2026-05-01 10:21 45.07340 19.77352 7683 ft 259 kts 123°
2026-05-01 10:21 45.06290 19.79366 7335 ft 249 kts 122°
2026-05-01 10:22 45.04339 19.83135 6809 ft 227 kts 122°
2026-05-01 10:22 45.02532 19.86682 6318 ft 221 kts 122°
2026-05-01 10:23 45.01641 19.88454 6073 ft 221 kts 122°
2026-05-01 10:23 44.99879 19.91984 5584 ft 220 kts 121°
2026-05-01 10:23 44.99015 19.93736 5355 ft 219 kts 121°
2026-05-01 10:24 44.97146 19.97135 4856 ft 219 kts 131°
2026-05-01 10:24 44.95299 20.00489 4380 ft 215 kts 118°
2026-05-01 10:25 44.93735 20.04093 3902 ft 214 kts 118°
2026-05-01 10:25 44.92166 20.07637 3537 ft 213 kts 118°
2026-05-01 10:26 44.91392 20.09399 3376 ft 213 kts 118°
2026-05-01 10:26 44.90607 20.11175 3165 ft 211 kts 119°
2026-05-01 10:26 44.89125 20.14506 2781 ft 196 kts 119°
2026-05-01 10:27 44.87694 20.17723 2235 ft 191 kts 119°
2026-05-01 10:27 44.86386 20.20661 1766 ft 161 kts 118°
2026-05-01 10:28 44.85823 20.21945 1502 ft 149 kts 118°
2026-05-01 10:28 44.84742 20.24386 1156 ft 148 kts 118°
2026-05-01 10:28 44.84203 20.25605 942 ft 147 kts 119°
2026-05-01 10:29 44.83132 20.28022 559 ft 146 kts 120°
2026-05-01 10:29 44.82597 20.29231 358 ft 143 kts 120°
2026-05-01 10:30 44.81749 20.31134 343 ft 72 kts 127°
2026-05-01 10:30 44.81487 20.31276 343 ft 16 kts 300°
2026-05-01 10:31 44.81796 20.30581 343 ft 59 kts 301°
2026-05-01 10:31 44.82180 20.29695 343 ft 33 kts 290°
2026-05-01 10:32 44.82103 20.29427 343 ft 9 kts 301°
2026-05-01 10:32 44.82131 20.29349 343 ft 8 kts 271°
2026-05-01 10:32 44.82094 20.29286 343 ft 0 kts 210°